Stündliche Wetter Barra Mansa

Heute, 21 Oktober, Mittwoch

Zeit Temperatur Niederschläge Wind Luftdruck Luftfeuchtigkeit
00:00 +19°C° 0 mm 0 m/S 723 mmHg 94%
01:00 +18°C° 0 mm 0 m/S 723 mmHg 94%
02:00 +18°C° 0 mm 0 m/S 722 mmHg 95%
03:00 +18°C° 0 mm 0 m/S 722 mmHg 95%
04:00 +18°C° 0 mm 0 m/S 722 mmHg 94%
05:00 +18°C° 0 mm 0 m/S 722 mmHg 94%
06:00 +18°C° 0 mm 0 m/S 722 mmHg 93%
07:00 +21°C° 0 mm 0 m/S 723 mmHg 84%
08:00 +24°C° 0 mm 0 m/S 724 mmHg 74%
09:00 +27°C° 0 mm 0 m/S 724 mmHg 65%
10:00 +30°C° 0.1 mm 1 m/S 724 mmHg 60%
11:00 +30°C° 0.1 mm 1 m/S 724 mmHg 56%
12:00 +31°C° 0.1 mm 2 m/S 724 mmHg 51%
13:00 +30°C° 0.5 mm 2 m/S 723 mmHg 57%
14:00 +29°C° 0.5 mm 3 m/S 723 mmHg 63%
15:00 +28°C° 0.5 mm 4 m/S 722 mmHg 68%
16:00 +26°C° 0.2 mm 3 m/S 722 mmHg 74%
17:00 +24°C° 0.2 mm 3 m/S 723 mmHg 80%
18:00 +23°C° 0.2 mm 2 m/S 723 mmHg 85%
19:00 +21°C° 0 mm 2 m/S 723 mmHg 89%
20:00 +21°C° 0 mm 1 m/S 724 mmHg 93%
21:00 +20°C° 0 mm 1 m/S 725 mmHg 97%
22:00 +18°C° 0 mm 0 m/S 724 mmHg 97%
23:00 +18°C° 0 mm 0 m/S 724 mmHg 97%

Morgen, 22 Oktober, Donnerstag

Zeit Temperatur Niederschläge Wind Luftdruck Luftfeuchtigkeit
00:00 +18°C° 0 mm 0 m/S 724 mmHg 96%
01:00 +18°C° 0 mm 0 m/S 724 mmHg 96%
02:00 +18°C° 0 mm 0 m/S 723 mmHg 95%
03:00 +18°C° 0 mm 0 m/S 723 mmHg 94%
04:00 +18°C° 0 mm 0 m/S 723 mmHg 94%
05:00 +18°C° 0 mm 0 m/S 724 mmHg 93%
06:00 +18°C° 0 mm 0 m/S 724 mmHg 93%
07:00 +21°C° 0 mm 1 m/S 724 mmHg 86%
08:00 +23°C° 0 mm 1 m/S 725 mmHg 79%
09:00 +24°C° 0 mm 1 m/S 725 mmHg 73%
10:00 +25°C° 0 mm 1 m/S 725 mmHg 69%
11:00 +26°C° 0 mm 1 m/S 725 mmHg 65%
12:00 +27°C° 0 mm 1 m/S 725 mmHg 62%
13:00 +26°C° 0.1 mm 2 m/S 724 mmHg 65%
14:00 +26°C° 0.1 mm 3 m/S 723 mmHg 68%
15:00 +26°C° 0.1 mm 3 m/S 723 mmHg 71%
16:00 +24°C° 0.1 mm 3 m/S 723 mmHg 76%
17:00 +22°C° 0.1 mm 3 m/S 723 mmHg 82%
18:00 +20°C° 0.1 mm 3 m/S 723 mmHg 87%
19:00 +20°C° 0 mm 2 m/S 724 mmHg 88%
20:00 +19°C° 0 mm 2 m/S 725 mmHg 88%
21:00 +20°C° 0 mm 1 m/S 725 mmHg 89%
22:00 +19°C° 0 mm 1 m/S 725 mmHg 90%
23:00 +19°C° 0 mm 1 m/S 725 mmHg 92%

übermorgen, 23 Oktober, Freitag

Zeit Temperatur Niederschläge Wind Luftdruck Luftfeuchtigkeit
00:00 +18°C° 0 mm 1 m/S 725 mmHg 93%
01:00 +16°C° 0 mm 0 m/S 724 mmHg 94%
02:00 +15°C° 0 mm 0 m/S 724 mmHg 94%
03:00 +15°C° 0 mm 0 m/S 723 mmHg 94%
04:00 +15°C° 0 mm 0 m/S 724 mmHg 93%
05:00 +15°C° 0 mm 0 m/S 724 mmHg 93%
06:00 +16°C° 0 mm 0 m/S 724 mmHg 92%
07:00 +19°C° 0 mm 1 m/S 724 mmHg 84%
08:00 +21°C° 0 mm 1 m/S 725 mmHg 76%
09:00 +23°C° 0 mm 2 m/S 725 mmHg 69%
10:00 +25°C° 0 mm 2 m/S 724 mmHg 62%
11:00 +27°C° 0 mm 2 m/S 724 mmHg 56%
12:00 +28°C° 0 mm 3 m/S 724 mmHg 50%
13:00 +28°C° 0 mm 3 m/S 723 mmHg 51%
14:00 +28°C° 0 mm 3 m/S 723 mmHg 51%
15:00 +28°C° 0 mm 3 m/S 722 mmHg 52%
16:00 +27°C° 0 mm 3 m/S 722 mmHg 59%
17:00 +25°C° 0 mm 2 m/S 722 mmHg 66%
18:00 +23°C° 0 mm 2 m/S 722 mmHg 73%
19:00 +23°C° 0 mm 1 m/S 722 mmHg 76%
20:00 +22°C° 0 mm 1 m/S 722 mmHg 78%
21:00 +21°C° 0 mm 1 m/S 723 mmHg 81%
22:00 +21°C° 0 mm 1 m/S 722 mmHg 84%
23:00 +20°C° 0 mm 1 m/S 722 mmHg 87%

24 Oktober, Samstag

Zeit Temperatur Niederschläge Wind Luftdruck Luftfeuchtigkeit
00:00 +20°C° 0 mm 1 m/S 722 mmHg 90%
01:00 +20°C° 0 mm 1 m/S 722 mmHg 90%
02:00 +20°C° 0 mm 1 m/S 721 mmHg 89%
03:00 +20°C° 0 mm 1 m/S 721 mmHg 88%
04:00 +20°C° 0 mm 1 m/S 721 mmHg 87%
05:00 +20°C° 0 mm 1 m/S 721 mmHg 86%
06:00 +20°C° 0 mm 1 m/S 721 mmHg 85%
07:00 +21°C° 0.1 mm 1 m/S 722 mmHg 84%
08:00 +21°C° 0.1 mm 1 m/S 722 mmHg 83%
09:00 +22°C° 0.1 mm 1 m/S 722 mmHg 82%
10:00 +22°C° 0.8 mm 1 m/S 722 mmHg 84%
11:00 +22°C° 0.8 mm 1 m/S 721 mmHg 86%
12:00 +22°C° 0.8 mm 1 m/S 721 mmHg 88%
13:00 +22°C° 0.4 mm 1 m/S 721 mmHg 90%
14:00 +20°C° 0.4 mm 0 m/S 720 mmHg 91%
15:00 +20°C° 0.4 mm 0 m/S 720 mmHg 93%
16:00 +19°C° 0.8 mm 0 m/S 720 mmHg 95%
17:00 +19°C° 0.8 mm 0 m/S 720 mmHg 96%
18:00 +19°C° 0.8 mm 0 m/S 720 mmHg 98%
19:00 +19°C° 0.9 mm 0 m/S 720 mmHg 98%
20:00 +19°C° 0.9 mm 0 m/S 720 mmHg 98%
21:00 +19°C° 0.9 mm 0 m/S 720 mmHg 98%
22:00 +19°C° 0.6 mm 0 m/S 719 mmHg 99%
23:00 +21°C° 0.6 mm 1 m/S 719 mmHg 99%

25 Oktober, Sonntag

Zeit Temperatur Niederschläge Wind Luftdruck Luftfeuchtigkeit
00:00 +21°C° 0.6 mm 1 m/S 718 mmHg 99%
01:00 +21°C° 0.3 mm 1 m/S 718 mmHg 99%
02:00 +18°C° 0.3 mm 0 m/S 717 mmHg 99%
03:00 +18°C° 0.3 mm 0 m/S 717 mmHg 99%
04:00 +18°C° 0.4 mm 0 m/S 717 mmHg 98%
05:00 +18°C° 0.4 mm 0 m/S 717 mmHg 98%
06:00 +19°C° 0.4 mm 0 m/S 717 mmHg 98%
07:00 +19°C° 1.2 mm 0 m/S 717 mmHg 98%
08:00 +19°C° 1.2 mm 0 m/S 718 mmHg 97%
09:00 +19°C° 1.2 mm 0 m/S 718 mmHg 97%
10:00 +19°C° 0.5 mm 0 m/S 718 mmHg 97%
11:00 +20°C° 0.5 mm 0 m/S 718 mmHg 96%
12:00 +20°C° 0.5 mm 0 m/S 718 mmHg 95%
13:00 +20°C° 0.2 mm 0 m/S 717 mmHg 94%
14:00 +21°C° 0.2 mm 0 m/S 717 mmHg 92%
15:00 +21°C° 0.2 mm 0 m/S 716 mmHg 90%
16:00 +20°C° 0.1 mm 0 m/S 717 mmHg 92%
17:00 +20°C° 0.1 mm 0 m/S 717 mmHg 94%
18:00 +20°C° 0.1 mm 0 m/S 717 mmHg 96%
19:00 +19°C° 0 mm 0 m/S 717 mmHg 96%
20:00 +19°C° 0 mm 0 m/S 717 mmHg 97%
21:00 +18°C° 0 mm 0 m/S 718 mmHg 97%
22:00 +18°C° 0 mm 0 m/S 718 mmHg 97%
23:00 +18°C° 0 mm 0 m/S 718 mmHg 97%

26 Oktober, Montag

Zeit Temperatur Niederschläge Wind Luftdruck Luftfeuchtigkeit
00:00 +18°C° 0 mm 0 m/S 718 mmHg 97%
01:00 +18°C° 0.1 mm 0 m/S 717 mmHg 97%
02:00 +18°C° 0.1 mm 0 m/S 717 mmHg 97%
03:00 +18°C° 0.1 mm 0 m/S 717 mmHg 97%
04:00 +18°C° 0 mm 0 m/S 717 mmHg 97%
05:00 +18°C° 0 mm 0 m/S 717 mmHg 96%
06:00 +18°C° 0 mm 0 m/S 717 mmHg 96%
07:00 +20°C° 0.1 mm 0 m/S 717 mmHg 89%
08:00 +22°C° 0.1 mm 0 m/S 718 mmHg 83%
09:00 +24°C° 0.1 mm 0 m/S 718 mmHg 76%
10:00 +27°C° 0.1 mm 1 m/S 718 mmHg 71%
11:00 +28°C° 0.1 mm 1 m/S 718 mmHg 66%
12:00 +29°C° 0.1 mm 1 m/S 718 mmHg 61%
13:00 +29°C° 0.1 mm 2 m/S 717 mmHg 63%
14:00 +29°C° 0.1 mm 2 m/S 716 mmHg 64%
15:00 +28°C° 0.1 mm 2 m/S 716 mmHg 65%
16:00 +27°C° 0 mm 2 m/S 715 mmHg 72%
17:00 +25°C° 0 mm 2 m/S 715 mmHg 80%
18:00 +24°C° 0 mm 2 m/S 715 mmHg 87%
19:00 +23°C° 0 mm 1 m/S 716 mmHg 91%
20:00 +22°C° 0 mm 1 m/S 716 mmHg 94%
21:00 +19°C° 0 mm 0 m/S 716 mmHg 97%
22:00 +19°C° 0.1 mm 0 m/S 716 mmHg 97%
23:00 +19°C° 0.1 mm 0 m/S 715 mmHg 97%

27 Oktober, Dienstag

Zeit Temperatur Niederschläge Wind Luftdruck Luftfeuchtigkeit
00:00 +19°C° 0.1 mm 0 m/S 715 mmHg 97%
01:00 +19°C° 0.1 mm 0 m/S 715 mmHg 97%
02:00 +19°C° 0.1 mm 0 m/S 714 mmHg 97%
03:00 +18°C° 0.1 mm 0 m/S 714 mmHg 97%
04:00 +19°C° 0 mm 0 m/S 714 mmHg 96%
05:00 +19°C° 0 mm 0 m/S 714 mmHg 96%
06:00 +19°C° 0 mm 0 m/S 714 mmHg 95%
07:00 +22°C° 0 mm 0 m/S 714 mmHg 86%
08:00 +26°C° 0 mm 1 m/S 715 mmHg 76%
09:00 +28°C° 0 mm 1 m/S 715 mmHg 67%
10:00 +30°C° 0 mm 1 m/S 715 mmHg 62%
11:00 +31°C° 0 mm 1 m/S 714 mmHg 57%
12:00 +33°C° 0 mm 1 m/S 714 mmHg 52%
13:00 +33°C° 0.1 mm 1 m/S 714 mmHg 52%
14:00 +33°C° 0.1 mm 1 m/S 713 mmHg 53%
15:00 +32°C° 0.1 mm 1 m/S 713 mmHg 53%
16:00 +30°C° 0.7 mm 2 m/S 713 mmHg 65%
17:00 +27°C° 0.7 mm 2 m/S 713 mmHg 77%
18:00 +24°C° 0.7 mm 2 m/S 713 mmHg 89%
19:00 +23°C° 0.7 mm 1 m/S 714 mmHg 92%
20:00 +22°C° 0.7 mm 1 m/S 714 mmHg 94%
21:00 +20°C° 0.7 mm 0 m/S 715 mmHg 97%
22:00 +19°C° 0 mm 0 m/S 715 mmHg 97%
23:00 +19°C° 0 mm 0 m/S 715 mmHg 96%
Mehr zeigen